CW3583 Weather Reports


time (UTC)temp
C
wind
direction
speed
KPH
gust
KPH
rain 1hr
cm
rain 24hr
cm
rain mn
cm
humidity
%
barometer
mb
20260506174806 15 58 3.2 4.8 0.00 0.53 0.48 81 1014.3
20260506173804 15 62 3.2 8.0 0.00 0.53 0.48 82 1014.3
20260506172306 15 58 6.4 9.7 0.00 0.53 0.48 81 1014.3
20260506171805 15 25 4.8 8.0 0.00 0.53 0.48 81 1014.3
20260506164805 15 25 6.4 9.7 0.00 0.53 0.48 83 1014.4
20260506164304 15 21 9.7 11.3 0.00 0.53 0.48 82 1014.4
20260506162804 15 4 8.0 12.9 0.00 0.53 0.48 83 1014.4
20260506160803 15 356 9.7 16.1 0.00 0.53 0.48 83 1014.7
20260506160305 15 354 11.3 14.5 0.00 0.53 0.48 83 1014.6
20260506153803 15 349 9.7 12.9 0.00 0.53 0.48 82 1014.8
20260506153306 15 6 9.7 12.9 0.00 0.53 0.48 82 1014.8
20260506152305 15 352 14.5 19.3 0.00 0.53 0.48 81 1014.9
20260506151806 15 347 11.3 16.1 0.00 0.53 0.48 81 1014.9
20260506151303 15 2 11.3 16.1 0.00 0.53 0.48 82 1014.9
20260506150805 15 1 11.3 14.5 0.00 0.53 0.48 81 1014.8
20260506145803 15 4 11.3 14.5 0.00 0.53 0.48 82 1014.9
20260506144806 15 358 11.3 14.5 0.00 0.53 0.48 82 1015.0
20260506143306 15 0 14.5 19.3 0.00 0.53 0.48 81 1015.0
20260506142803 15 342 14.5 22.5 0.00 0.53 0.48 80 1015.0
20260506134807 15 314 11.3 19.3 0.00 0.94 0.48 81 1015.3
20260506134303 15 317 14.5 19.3 0.00 1.35 0.48 80 1015.3
20260506133307 15 6 9.7 19.3 0.00 1.35 0.48 81 1015.4
20260506132306 15 322 9.7 16.1 0.00 1.35 0.48 82 1015.4
20260506131304 15 341 14.5 20.9 0.00 1.35 0.48 82 1015.3
20260506130306 14 318 16.1 22.5 0.00 1.35 0.48 82 1015.4
20260506124303 15 345 12.9 20.9 0.00 1.35 0.48 81 1015.5
20260506123306 15 335 11.3 19.3 0.00 1.35 0.48 79 1015.5
20260506122804 15 320 11.3 22.5 0.00 1.35 0.48 79 1015.5
20260506122306 15 300 12.9 19.3 0.00 1.35 0.48 79 1015.5
20260506120803 15 314 12.9 22.5 0.00 1.35 0.48 78 1015.3
20260506114806 15 275 11.3 19.3 0.00 1.35 0.48 80 1015.3
20260506112803 15 313 14.5 24.1 0.00 1.35 0.48 82 1015.4
20260506111806 15 304 12.9 24.1 0.00 1.35 0.48 82 1015.5
20260506110306 15 314 12.9 24.1 0.00 1.35 0.48 81 1015.3
20260506105305 15 284 16.1 24.1 0.00 1.35 0.48 81 1015.4
20260506103803 14 264 11.3 22.5 0.00 1.35 0.48 84 1015.2
20260506103306 14 294 8.0 20.9 0.00 1.35 0.48 84 1015.2
20260506100306 13 248 4.8 12.9 0.03 1.35 0.48 87 1015.2
20260506095803 13 269 12.9 20.9 0.03 1.35 0.48 87 1015.2
20260506092804 13 252 12.9 24.1 0.05 1.35 0.48 87 1015.1
20260506090804 13 258 14.5 22.5 0.10 1.32 0.46 87 1015.1
20260506084807 13 279 12.9 20.9 0.15 1.32 0.46 86 1014.9
20260506083804 13 272 8.0 12.9 0.13 1.30 0.43 86 1014.9
20260506083306 13 259 4.8 9.7 0.13 1.30 0.43 85 1015.0
20260506071806 13 259 14.5 25.7 0.00 1.17 0.33 82 1014.6
20260506071303 13 251 9.7 20.9 0.00 1.17 0.33 82 1014.5
20260506062305 12 228 11.3 19.3 0.00 1.17 0.33 84 1014.2
20260506061806 12 235 11.3 19.3 0.00 1.17 0.33 84 1014.1
20260506061304 12 230 11.3 19.3 0.00 1.17 0.33 84 1014.1
20260506050306 12 212 14.5 22.5 0.03 1.17 0.33 86 1013.9
20260506043803 12 231 11.3 24.1 0.03 1.17 0.33 86 1014.0
20260506042305 12 219 11.3 19.3 0.00 1.17 0.30 86 1013.9
20260506035804 12 230 14.5 20.9 0.15 1.17 0.30 88 1014.0
20260506035306 12 221 11.3 22.5 0.20 1.17 0.30 88 1014.1
20260506034806 11 223 11.3 25.7 0.20 1.17 0.30 88 1014.1
20260506033804 11 221 11.3 20.9 0.20 1.17 0.30 88 1014.1
20260506025803 12 252 9.7 14.5 0.05 1.02 0.15 88 1014.2
20260506025305 12 221 8.0 14.5 0.03 0.99 0.10 89 1014.2
20260506023306 12 238 9.7 16.1 0.03 0.99 0.10 89 1014.2
20260506022305 12 217 9.7 16.1 0.03 0.99 0.10 89 1014.2
20260506020307 12 218 11.3 19.3 0.03 0.99 0.10 89 1014.2
20260506015803 12 234 11.3 20.9 0.03 0.99 0.10 88 1014.3
20260506013804 12 210 9.7 19.3 0.03 0.97 0.08 88 1014.3
20260506013305 12 212 8.0 16.1 0.03 0.97 0.08 88 1014.3
20260506012307 12 206 11.3 19.3 0.03 0.97 0.08 88 1014.3
20260506011806 12 206 8.0 16.1 0.03 0.97 0.08 88 1014.4
20260506010805 12 214 9.7 19.3 0.03 0.99 0.08 87 1014.4
20260506010306 12 214 11.3 19.3 0.03 0.99 0.08 87 1014.5
20260506005804 12 222 11.3 20.9 0.03 0.99 0.08 87 1014.5
20260506003306 12 216 11.3 24.1 0.05 0.99 0.05 87 1014.8
20260506001807 12 221 11.3 19.3 0.05 0.99 0.05 87 1014.9
20260506000803 12 248 9.7 25.7 0.05 0.99 0.05 87 1014.9
20260505235804 12 252 9.7 20.9 0.05 0.99 0.05 87 1014.9
20260505234806 12 204 9.7 22.5 0.05 0.99 0.05 86 1015.0
20260505233803 12 215 9.7 19.3 0.00 0.97 0.03 86 1014.9
20260505233307 12 239 11.3 20.9 0.00 0.97 0.03 87 1014.9
20260505232305 12 229 9.7 19.3 0.00 0.97 0.03 87 1015.0
20260505230804 12 229 12.9 22.5 0.00 0.97 0.03 87 1015.0
20260505230308 12 205 11.3 22.5 0.03 0.97 0.03 88 1014.9
20260505225305 12 219 9.7 20.9 0.05 0.99 0.03 88 1015.1
20260505223804 13 217 9.7 19.3 0.05 1.02 0.03 88 1015.1
20260505223306 13 241 8.0 12.9 0.05 1.02 0.03 88 1015.1
20260505222305 13 240 6.4 14.5 0.05 1.04 0.03 87 1015.1
20260505221303 13 222 6.4 12.9 0.05 1.07 0.03 86 1015.1
20260505220814 13 235 11.3 19.3 0.05 1.07 0.03 86 1015.1
20260505220306 13 266 11.3 19.3 0.05 1.07 0.00 86 1015.3
20260505215305 13 246 8.0 19.3 0.03 1.04 1.04 86 1015.3
20260505213804 13 224 8.0 14.5 0.03 1.02 1.02 86 1015.3
20260505212803 13 229 12.9 22.5 0.03 1.02 1.02 86 1015.3
20260505212305 13 224 8.0 16.1 0.03 1.02 1.02 86 1015.2
20260505210804 13 240 4.8 9.7 0.03 1.07 1.02 86 1015.1
20260505210307 13 226 8.0 19.3 0.03 1.07 1.02 86 1015.2
20260505203307 13 231 8.0 16.1 0.00 1.07 0.99 85 1015.1
20260505202306 13 204 4.8 16.1 0.00 1.07 0.99 84 1015.1
20260505201806 13 211 6.4 12.9 0.00 1.07 0.99 84 1015.0
20260505195305 13 221 8.0 12.9 0.00 1.09 0.99 80 1015.0
20260505194303 14 227 8.0 14.5 0.00 1.09 0.99 79 1015.0
20260505191807 14 268 11.3 19.3 0.00 1.09 0.99 77 1014.8
20260505191304 14 267 8.0 14.5 0.00 1.09 0.99 77 1014.7
20260505185803 14 257 9.7 19.3 0.00 1.09 0.99 77 1014.7
20260505185305 14 252 6.4 12.9 0.00 1.09 0.99 76 1014.8
20260505184806 15 216 11.3 20.9 0.00 1.09 0.99 76 1014.7
20260505184303 15 269 11.3 19.3 0.00 1.09 0.99 76 1014.8
20260505183803 15 270 8.0 14.5 0.00 1.09 0.99 76 1014.7
20260505182803 15 285 11.3 19.3 0.00 1.09 0.99 76 1014.5
20260505180803 15 275 9.7 20.9 0.00 1.09 0.99 73 1014.5
20260505180306 15 298 9.7 16.1 0.00 1.09 0.99 74 1014.6
20260505175803 15 305 14.5 22.5 0.00 1.09 0.99 75 1014.5